Back to catalog

ATLAS 5 CENTAUR DEB

LostHEO
NORAD 43956·DEBRIS·🇺🇸 United States

Launched Sep 17, 2014 from Cape Canaveral Space Force Station

Loading…

Next Passes (next 24 hours)

TLE

StaleSource: Space-Track

Epoch: May 19, 2026, 00:33 UTC

1 43956U 14055K   26139.02316465  .00000011  00000-0  00000-0 0  9992
2 43956  20.9728 102.4950 5075149 242.0586  58.0678  1.92105117 53577

Track ATLAS 5 CENTAUR DEB in real time with AllMySat

Download on the App Store